User: anonymous   Login
Location: Brno
(49.2000°N, 16.6330°E)
Time: 17:38:48
(UTC+02:00)
Language:

Cosmos 2227 - Orbit

View from above orbital plane
View from above orbital plane
View from above satellite
View from above satellite

Ground track
Ground track

The orbit data is extracted from the following two-line orbital elements,

1 22284U 92093A   15183.74686168 -.00000212  00000-0 -87646-4 0  9997
2 22284 070.9812 295.2408 0018340 184.9615 175.1328 14.13237338161568
Epoch (UTC): 02 July 2015 17:55:28
Eccentricity: 0.0018340
inclination: 70.9812°
perigee height: 835 km
apogee height: 861 km
right ascension of ascending node: 295.2408°
argument of perigee: 184.9615°
revolutions per day: 14.13237338
mean anomaly at epoch: 175.1328°
orbit number at epoch: 16156

The dashed part of the orbit path shows where the satellite is in the earth's shadow,  

DLR